G7NPW-1 Weather Reports


time (UTC)temp
C
wind
direction
speed
KPH
gust
KPH
rain 1hr
cm
rain 24hr
cm
rain mn
cm
humidity
%
barometer
mb
20260902203504 20 210 24.1 24.1 0.00 0.00 0.00 82 1012.9
20260902201003 20 210 24.1 24.1 0.00 0.00 0.00 82 1012.9
20260902200004 20 210 24.1 25.7 0.00 0.00 0.00 82 1012.9
20260902194004 18 200 25.7 25.7 0.00 0.00 0.00 93 1012.9
20260902192005 18 200 25.7 25.7 0.00 0.00 0.00 93 1012.9
20260902191504 18 200 25.7 25.7 0.00 0.00 0.00 93 1012.9
20260902190004 18 200 25.7 25.7 0.00 0.00 0.00 93 1012.9
20260902184504 18 200 22.5 22.5 0.00 0.00 0.00 88 1012.9
20260902184005 18 200 22.5 22.5 0.00 0.00 0.00 88 1012.9
20260902182004 18 200 22.5 22.5 0.00 0.00 0.00 88 1012.9
20260902180504 18 200 22.5 24.1 0.00 0.00 0.00 88 1012.9
20260902180006 18 200 22.5 24.1 0.00 0.00 0.00 88 1012.9
20260902175504 18 200 24.1 24.1 0.00 0.00 0.00 93 1012.9
20260902175004 18 200 24.1 24.1 0.00 0.00 0.00 93 1012.9
20260902173504 18 200 24.1 24.1 0.00 0.00 0.00 93 1012.9
20260902173004 18 200 24.1 24.1 0.00 0.00 0.00 93 1012.9
20260902172004 18 200 24.1 24.1 0.00 0.00 0.00 93 1012.9
20260902170004 18 200 24.1 27.4 0.00 0.00 0.00 93 1012.9
20260902163004 17 190 27.4 27.4 0.00 0.00 0.00 93 1012.9
20260902160504 17 190 27.4 27.4 0.00 0.00 0.00 93 1012.9
20260902155003 17 190 24.1 24.1 0.00 0.00 0.00 88 1013.9
20260902154504 17 190 24.1 24.1 0.00 0.00 0.00 88 1013.9
20260902153504 17 190 24.1 24.1 0.00 0.00 0.00 88 1013.9
20260902151504 17 190 24.1 24.1 0.00 0.00 0.00 88 1013.9
20260902151005 17 190 24.1 24.1 0.00 0.00 0.00 88 1013.9
20260902150004 17 190 24.1 24.1 0.00 0.00 0.00 88 1013.9
20260902145503 17 170 19.3 19.3 0.00 0.00 0.00 93 1014.9
20260902145004 17 170 19.3 19.3 0.00 0.00 0.00 93 1014.9
20260902144004 17 170 19.3 19.3 0.00 0.00 0.00 93 1014.9
20260902143504 17 170 19.3 19.3 0.00 0.00 0.00 93 1014.9
20260902143004 17 170 19.3 19.3 0.00 0.00 0.00 93 1014.9
20260902142004 17 170 19.3 19.3 0.00 0.00 0.00 93 1014.9
20260902140504 17 170 19.3 22.5 0.00 0.00 0.00 93 1014.9
20260902140004 17 170 19.3 22.5 0.00 0.00 0.00 93 1014.9
20260902134504 17 180 22.5 22.5 0.00 0.00 0.00 77 1014.9
20260902133004 17 180 22.5 22.5 0.00 0.00 0.00 77 1014.9
20260902132004 17 180 22.5 22.5 0.00 0.00 0.00 77 1014.9
20260902131504 17 180 22.5 22.5 0.00 0.00 0.00 77 1014.9
20260902130504 17 180 22.5 24.1 0.00 0.00 0.00 77 1014.9
20260902130004 17 180 22.5 24.1 0.00 0.00 0.00 77 1014.9
20260902125004 17 210 24.1 24.1 0.00 0.00 0.00 77 1015.9
20260902124504 17 210 24.1 24.1 0.00 0.00 0.00 77 1015.9
20260902122004 17 210 24.1 24.1 0.00 0.00 0.00 77 1015.9
20260902115504 17 190 20.9 20.9 0.00 0.00 0.00 82 1016.9
20260902115004 17 190 20.9 20.9 0.00 0.00 0.00 82 1016.9
20260902111504 17 190 20.9 20.9 0.00 0.00 0.00 82 1016.9
20260902111003 17 190 20.9 20.9 0.00 0.00 0.00 82 1016.9
20260902110005 17 190 20.9 20.9 0.00 0.00 0.00 82 1016.9
20260902104004 17 190 14.5 14.5 0.00 0.00 0.00 88 1016.9
20260902100004 17 190 14.5 14.5 0.00 0.00 0.00 88 1016.9
20260902095504 16 200 14.5 14.5 0.00 0.00 0.00 87 1017.9
20260902095004 16 200 14.5 14.5 0.00 0.00 0.00 87 1017.9
20260902094504 16 200 14.5 14.5 0.00 0.00 0.00 87 1017.9
20260902091504 16 200 14.5 14.5 0.00 0.00 0.00 87 1017.9
20260902090504 16 200 14.5 14.5 0.00 0.00 0.00 87 1017.9
20260902090005 16 200 14.5 14.5 0.00 0.00 0.00 87 1017.9
20260902085504 15 200 14.5 14.5 0.00 0.00 0.00 93 1017.9
20260902085004 15 200 14.5 14.5 0.00 0.00 0.00 93 1017.9
20260902084504 15 200 14.5 14.5 0.00 0.00 0.00 93 1017.9
20260902082004 15 200 14.5 14.5 0.00 0.00 0.00 93 1017.9
20260902080004 15 200 14.5 14.5 0.00 0.00 0.00 93 1017.9
20260902075504 15 220 14.5 14.5 0.00 0.00 0.00 87 1016.9
20260902075004 15 220 14.5 14.5 0.00 0.00 0.00 87 1016.9
20260902074004 15 220 14.5 14.5 0.00 0.00 0.00 87 1016.9
20260902073004 15 220 14.5 14.5 0.00 0.00 0.00 87 1016.9
20260902072504 15 220 14.5 14.5 0.00 0.00 0.00 87 1016.9
20260902072004 15 220 14.5 14.5 0.00 0.00 0.00 87 1016.9
20260902071504 15 220 14.5 14.5 0.00 0.00 0.00 87 1016.9
20260902070504 15 220 14.5 14.5 0.00 0.00 0.00 87 1016.9
20260902070006 15 220 14.5 14.5 0.00 0.00 0.00 87 1016.9
20260902065505 17 230 12.9 12.9 0.00 0.00 0.00 77 1017.9
20260902063504 17 230 12.9 12.9 0.00 0.00 0.00 77 1017.9
20260902062004 17 230 12.9 12.9 0.00 0.00 0.00 77 1017.9
20260902061504 17 230 12.9 12.9 0.00 0.00 0.00 77 1017.9
20260902060504 17 230 12.9 12.9 0.00 0.00 0.00 77 1017.9